| time (UTC) | temp F | wind direction | speed knots | gust knots | rain 1hr in | rain 24hr in | rain mn in | humidity % | barometer mb |
| 20260504130104 | 53 | 247 | 0.0 | 8.7 | 0.00 | 0.00 | 0.00 | 51 | 1012.1 |
| 20260504120128 | 49 | 243 | 0.9 | 6.1 | 0.00 | 0.00 | 0.00 | 56 | 1012.5 |
| 20260504090125 | 40 | 262 | 0.0 | 1.7 | 0.00 | 0.00 | 0.00 | 68 | 1011.7 |
| 20260504081543 | 41 | 262 | 0.0 | 0.9 | 0.00 | 0.00 | 0.00 | 69 | 1011.8 |
| 20260504050110 | 38 | 286 | 0.0 | 0.0 | 0.00 | 0.00 | 0.00 | 70 | 1012.0 |
| 20260504044535 | 39 | 286 | 0.0 | 0.0 | 0.00 | 0.00 | 0.00 | 68 | 1012.3 |
| 20260504043123 | 39 | 286 | 0.0 | 0.0 | 0.00 | 0.00 | 0.00 | 70 | 1012.3 |
| 20260504040004 | 39 | 285 | 0.0 | 0.0 | 0.00 | 0.00 | 0.00 | 69 | 1012.1 |
| 20260504034634 | 40 | 286 | 0.0 | 0.0 | 0.00 | 0.00 | 0.00 | 68 | 1012.1 |
| 20260504033019 | 40 | 286 | 0.0 | 0.0 | 0.00 | 0.00 | 0.00 | 69 | 1012.1 |
| 20260504031610 | 41 | 286 | 0.0 | 0.0 | 0.00 | 0.00 | 0.00 | 68 | 1011.9 |
| 20260504030027 | 41 | 285 | 0.0 | 0.0 | 0.00 | 0.00 | 0.00 | 63 | 1011.8 |
| 20260504024619 | 41 | 285 | 0.0 | 0.9 | 0.00 | 0.00 | 0.00 | 64 | 1011.9 |
| 20260504023031 | 42 | 285 | 0.0 | 0.0 | 0.00 | 0.00 | 0.00 | 54 | 1012.0 |
| 20260504021631 | 42 | 285 | 0.0 | 0.0 | 0.00 | 0.00 | 0.00 | 53 | 1012.0 |
| 20260504020043 | 42 | 286 | 0.0 | 0.0 | 0.00 | 0.00 | 0.00 | 54 | 1011.9 |
| 20260504014630 | 43 | 285 | 0.0 | 0.9 | 0.00 | 0.00 | 0.00 | 53 | 1011.7 |
| 20260504013055 | 44 | 285 | 0.0 | 0.0 | 0.00 | 0.00 | 0.00 | 51 | 1011.5 |
| 20260504011517 | 44 | 285 | 0.0 | 0.9 | 0.00 | 0.00 | 0.00 | 49 | 1011.4 |
| 20260504004527 | 45 | 325 | 0.0 | 1.7 | 0.00 | 0.00 | 0.00 | 45 | 1011.0 |
| 20260504003124 | 45 | 325 | 0.0 | 3.5 | 0.00 | 0.00 | 0.00 | 44 | 1010.9 |
| 20260504001559 | 46 | 303 | 0.0 | 4.3 | 0.00 | 0.00 | 0.00 | 42 | 1010.6 |
| 20260504000132 | 46 | 307 | 0.0 | 1.7 | 0.00 | 0.00 | 0.00 | 40 | 1010.4 |
| 20260503234555 | 47 | 244 | 0.0 | 4.3 | 0.00 | 0.00 | 0.00 | 39 | 1010.3 |
| 20260503233018 | 47 | 277 | 0.9 | 5.2 | 0.00 | 0.00 | 0.00 | 37 | 1010.1 |
| 20260503231609 | 48 | 298 | 1.7 | 6.1 | 0.00 | 0.00 | 0.00 | 37 | 1010.0 |
| 20260503230022 | 49 | 297 | 1.7 | 6.1 | 0.00 | 0.00 | 0.00 | 36 | 1010.0 |
| 20260503224622 | 49 | 312 | 0.9 | 5.2 | 0.00 | 0.00 | 0.00 | 36 | 1009.9 |
| 20260503223039 | 49 | 270 | 2.6 | 9.6 | 0.00 | 0.00 | 0.00 | 37 | 1009.8 |
| 20260503221626 | 50 | 327 | 0.9 | 8.7 | 0.00 | 0.00 | 0.00 | 38 | 1009.7 |
| 20260503220033 | 49 | 328 | 3.5 | 10.4 | 0.00 | 0.00 | 0.00 | 37 | 1009.7 |
| 20260503214631 | 49 | 325 | 2.6 | 7.0 | 0.00 | 0.00 | 0.00 | 39 | 1009.8 |
| 20260503213051 | 49 | 234 | 3.5 | 17.4 | 0.00 | 0.00 | 0.00 | 37 | 1009.6 |
| 20260503211513 | 50 | 259 | 2.6 | 12.2 | 0.00 | 0.00 | 0.00 | 38 | 1009.7 |
| 20260503210106 | 50 | 317 | 5.2 | 15.6 | 0.00 | 0.00 | 0.00 | 38 | 1009.7 |
| 20260503204700 | 50 | 273 | 2.6 | 13.0 | 0.00 | 0.00 | 0.00 | 40 | 1009.7 |
| 20260503203128 | 48 | 293 | 0.9 | 12.2 | 0.00 | 0.00 | 0.00 | 42 | 1009.7 |
| 20260503201553 | 49 | 269 | 5.2 | 11.3 | 0.00 | 0.00 | 0.00 | 41 | 1009.7 |
| 20260503200003 | 47 | 290 | 2.6 | 10.4 | 0.00 | 0.00 | 0.00 | 42 | 1009.8 |
| 20260503194601 | 48 | 267 | 3.5 | 10.4 | 0.00 | 0.00 | 0.00 | 40 | 1009.8 |
| 20260503193019 | 48 | 348 | 0.9 | 11.3 | 0.00 | 0.00 | 0.00 | 43 | 1009.7 |
| 20260503191617 | 46 | 12 | 5.2 | 13.0 | 0.00 | 0.00 | 0.00 | 44 | 1009.9 |
| 20260503190043 | 45 | 275 | 2.6 | 11.3 | 0.00 | 0.00 | 0.00 | 45 | 1009.9 |
| 20260503184623 | 46 | 318 | 4.3 | 13.9 | 0.00 | 0.00 | 0.00 | 44 | 1009.9 |
| 20260503183054 | 45 | 293 | 4.3 | 16.5 | 0.00 | 0.00 | 0.00 | 43 | 1009.8 |
| 20260503181501 | 46 | 284 | 1.7 | 11.3 | 0.00 | 0.00 | 0.00 | 43 | 1009.8 |
| 20260503180059 | 47 | 304 | 2.6 | 16.5 | 0.00 | 0.00 | 0.00 | 43 | 1009.7 |
| 20260503174517 | 47 | 283 | 3.5 | 10.4 | 0.00 | 0.00 | 0.00 | 43 | 1009.7 |
| 20260503171534 | 45 | 347 | 3.5 | 8.7 | 0.00 | 0.00 | 0.00 | 44 | 1009.7 |
| 20260503170116 | 44 | 17 | 3.5 | 15.6 | 0.00 | 0.00 | 0.00 | 49 | 1009.8 |
| 20260503160127 | 43 | 302 | 4.3 | 10.4 | 0.00 | 0.00 | 0.00 | 53 | 1010.0 |